tititudorancea.com
Station Historical Data
Daily Summary for February 8, 2018 Units:  Metric    English   Both
« Previous Day
Next Day »
Daily Weekly Monthly Yearly Custom
  High: Low: Average:
Temperature: -17.8 °C 17.4 °C 23.6 °C
Dew Point: -17.8 °C 7.1 °C 12 °C
Humidity: Humidity % 28 % 51 %
Wind Speed: 0 km/h 0 km/h 7.6 km/h
Wind Gust: 0 km/h - -
Wind:- - SSW
Pressure: 0 hPa 1009.4 hPa -
Precipitation: 0 mm    
Historical Graphs
 
 
Ararat weather Find more about Weather in Ararat, AU


 



 


Tabular Data for February 8, 2018
Time Temperature Dew Point Pressure Wind Wind Speed Wind Gust Humidity Rainfall Rate (Hourly)
-17.8 °C -17.8 °C 0 hPa Calm     Humidity % 0 mm
00:00 22.9 °C 7.1 °C 1010.4 hPa South 2.4 km/h 5.6 km/h 36 % 0 mm
00:05 22.9 °C 7.4 °C 1010.4 hPa South 1.4 km/h 3.7 km/h 37 % 0 mm
00:10 22.9 °C 7.4 °C 1010.4 hPa South 2.9 km/h 5.6 km/h 37 % 0 mm
00:15 22.9 °C 7.4 °C 1010.4 hPa South 2.3 km/h 5.6 km/h 37 % 0 mm
00:20 22.9 °C 7.9 °C 1010.4 hPa South 1.9 km/h 3.7 km/h 38 % 0 mm
00:25 22.9 °C 7.9 °C 1010 hPa South 1.4 km/h 3.7 km/h 38 % 0 mm
00:30 22.9 °C 7.8 °C 1010.4 hPa South 0.3 km/h 1.6 km/h 38 % 0 mm
00:35 22.9 °C 8.2 °C 1010 hPa South 4.8 km/h 5.6 km/h 39 % 0 mm
00:40 22.9 °C 8.2 °C 1010 hPa South 3.2 km/h 5.6 km/h 39 % 0 mm
00:45 22.9 °C 8.6 °C 1010 hPa South 3.7 km/h 5.6 km/h 40 % 0 mm
00:50 23 °C 8.7 °C 1010 hPa South 3.1 km/h 5.6 km/h 40 % 0 mm
00:55 23.2 °C 8.9 °C 1010 hPa South 2.4 km/h 5.6 km/h 40 % 0 mm
01:00 23.3 °C 8.9 °C 1010 hPa South 1.9 km/h 3.7 km/h 40 % 0 mm
01:05 23.3 °C 8.9 °C 1010 hPa South 1.8 km/h 5.6 km/h 40 % 0 mm
01:10 23.3 °C 9.3 °C 1010 hPa Calm     41 % 0 mm
01:15 23.2 °C 9.6 °C 1010 hPa Calm     42 % 0 mm
01:20 23 °C 9.1 °C 1009.7 hPa South 2.7 km/h 3.7 km/h 41 % 0 mm
01:25 22.8 °C 8.9 °C 1009.7 hPa Calm     41 % 0 mm
01:30 22.6 °C 9 °C 1009.7 hPa Calm     42 % 0 mm
01:35 22.2 °C 8.7 °C 1009.7 hPa Calm     42 % 0 mm
01:40 21.9 °C 8.8 °C 1009.4 hPa Calm     43 % 0 mm
01:45 21.7 °C 8.9 °C 1009.4 hPa Calm     44 % 0 mm
01:50 21.4 °C 9 °C 1009.4 hPa Calm     45 % 0 mm
01:55 21.2 °C 8.8 °C 1009.4 hPa Calm     45 % 0 mm
02:00 20.9 °C 8.9 °C 1009.4 hPa Calm     46 % 0 mm
02:05 20.7 °C 9 °C 1009.4 hPa Calm     47 % 0 mm
02:10 20.6 °C 9.2 °C 1009.4 hPa Calm     48 % 0 mm
02:15 20.3 °C 9.3 °C 1009.4 hPa Calm     49 % 0 mm
02:20 20.1 °C 9.3 °C 1009.4 hPa Calm     50 % 0 mm
02:25 20 °C 9.3 °C 1009.4 hPa Calm     50 % 0 mm
02:30 19.8 °C 9.1 °C 1009.4 hPa Calm     50 % 0 mm
02:35 19.8 °C 9.3 °C 1009.4 hPa Calm     51 % 0 mm
02:40 19.7 °C 9.6 °C 1009.4 hPa Calm     52 % 0 mm
02:45 19.5 °C 9.4 °C 1009.4 hPa Calm     52 % 0 mm
02:50 19.4 °C 9.6 °C 1009.4 hPa Calm     53 % 0 mm
02:55 19.3 °C 9.4 °C 1009.4 hPa Calm     53 % 0 mm
03:00 19.2 °C 9.3 °C 1009.4 hPa Calm     53 % 0 mm
03:05 19.1 °C 9.6 °C 1009.4 hPa Calm     54 % 0 mm
03:10 18.9 °C 9.4 °C 1009.4 hPa Calm     54 % 0 mm
03:15 18.8 °C 9.6 °C 1009.4 hPa Calm     55 % 0 mm
03:20 18.8 °C 9.6 °C 1009.4 hPa Calm     55 % 0 mm
03:25 18.8 °C 9.6 °C 1009.4 hPa Calm     55 % 0 mm
03:30 18.7 °C 9.7 °C 1009.4 hPa Calm     56 % 0 mm
03:35 18.6 °C 9.9 °C 1009.4 hPa Calm     57 % 0 mm
03:40 18.5 °C 9.8 °C 1009.4 hPa Calm     57 % 0 mm
03:45 18.4 °C 9.8 °C 1009.4 hPa Calm     57 % 0 mm
03:50 18.4 °C 9.5 °C 1009.4 hPa Calm     56 % 0 mm
03:55 18.5 °C 9.6 °C 1009.4 hPa Calm     56 % 0 mm
04:00 18.4 °C 9.8 °C 1009.4 hPa Calm     57 % 0 mm
04:05 18.4 °C 9.7 °C 1009.4 hPa Calm     57 % 0 mm
04:10 18.3 °C 9.9 °C 1009.4 hPa Calm     58 % 0 mm
04:15 18.2 °C 9.8 °C 1009.7 hPa Calm     58 % 0 mm
04:20 18.1 °C 9.7 °C 1009.7 hPa Calm     58 % 0 mm
04:25 18 °C 9.9 °C 1009.7 hPa Calm     59 % 0 mm
04:30 17.9 °C 9.8 °C 1009.7 hPa Calm     59 % 0 mm
04:35 17.8 °C 9.9 °C 1009.7 hPa Calm     60 % 0 mm
04:40 17.7 °C 9.8 °C 1010 hPa South 2.3 km/h 5.6 km/h 60 % 0 mm
04:45 17.6 °C 10.2 °C 1010 hPa South 1.8 km/h 3.7 km/h 62 % 0 mm
04:50 17.5 °C 10.1 °C 1010.4 hPa South 2.7 km/h 5.6 km/h 62 % 0 mm
04:55 17.4 °C 10.3 °C 1010.4 hPa South 2.9 km/h 5.6 km/h 63 % 0 mm
05:00 17.4 °C 10.1 °C 1010.4 hPa North 0.5 km/h 1.9 km/h 62 % 0 mm
05:05 17.5 °C 9.9 °C 1010.4 hPa South 4.8 km/h 5.6 km/h 61 % 0 mm
05:10 18.2 °C 9.2 °C 1010.4 hPa North 7.2 km/h 13 km/h 56 % 0 mm
05:15 19.5 °C 9.1 °C 1010.4 hPa SSW 8.4 km/h 16.7 km/h 51 % 0 mm
05:20 20.3 °C 9.2 °C 1010.7 hPa South 12.7 km/h 17.7 km/h 49 % 0 mm
05:25 20.4 °C 9.6 °C 1010.4 hPa North 18.8 km/h 25.9 km/h 50 % 0 mm
05:30 20.2 °C 9.4 °C 1010.7 hPa SSW 13.2 km/h 18.5 km/h 50 % 0 mm
05:35 19.9 °C 9.8 °C 1010.7 hPa South 13.7 km/h 18.5 km/h 52 % 0 mm
05:40 19.7 °C 9.6 °C 1010.7 hPa North 5 km/h 11.1 km/h 52 % 0 mm
05:45 19.6 °C 9.7 °C 1010.7 hPa South 4.8 km/h 7.4 km/h 53 % 0 mm
05:50 19.3 °C 10 °C 1010.7 hPa South 4 km/h 7.4 km/h 55 % 0 mm
05:55 19.1 °C 10.1 °C 1011.1 hPa South 5.5 km/h 8 km/h 56 % 0 mm
06:00 18.8 °C 10.7 °C 1011.1 hPa South 6.8 km/h 13 km/h 59 % 0 mm
06:05 18.7 °C 11.2 °C 1011.1 hPa South 6.1 km/h 12.9 km/h 62 % 0 mm
06:10 18.6 °C 11.8 °C 1011.1 hPa South 4.8 km/h 8 km/h 65 % 0 mm
06:15 18.4 °C 12.2 °C 1011.1 hPa South 5.6 km/h 7.4 km/h 67 % 0 mm
06:20 18.3 °C 12.3 °C 1011.1 hPa South 6.9 km/h 9.3 km/h 68 % 0 mm
06:25 18.1 °C 12.3 °C 1011.1 hPa South 0.6 km/h 5.6 km/h 69 % 0 mm
06:30 18 °C 12.4 °C 1011.1 hPa South 3.9 km/h 7.4 km/h 70 % 0 mm
06:35 17.9 °C 12.6 °C 1011.1 hPa South 3.2 km/h 5.6 km/h 71 % 0 mm
06:40 17.9 °C 12.8 °C 1011.1 hPa South 2.4 km/h 7.4 km/h 72 % 0 mm
06:45 17.8 °C 12.9 °C 1011.1 hPa North 1 km/h 5.6 km/h 73 % 0 mm
06:51 17.8 °C 12.9 °C 1010.7 hPa Calm     73 % 0 mm
06:56 17.8 °C 12.9 °C 1011.1 hPa Calm     73 % 0 mm
07:01 17.8 °C 13.1 °C 1011.1 hPa North 5.3 km/h 5.6 km/h 74 % 0 mm
07:06 17.8 °C 13.6 °C 1011.1 hPa North 6.4 km/h 9.3 km/h 76 % 0 mm
07:11 17.9 °C 13.8 °C 1011.1 hPa South 3.7 km/h 7.4 km/h 77 % 0 mm
07:16 17.9 °C 14 °C 1011.1 hPa North 2.4 km/h 5.6 km/h 78 % 0 mm
07:21 17.9 °C 14.2 °C 1011.1 hPa South 2.4 km/h 5.6 km/h 79 % 0 mm
07:26 17.9 °C 14.2 °C 1011.1 hPa South 4.3 km/h 5.6 km/h 79 % 0 mm
07:31 17.9 °C 14.4 °C 1011.1 hPa South 4.7 km/h 8 km/h 80 % 0 mm
07:36 18.1 °C 14.7 °C 1011.1 hPa South 8.5 km/h 9.7 km/h 81 % 0 mm
07:41 18.1 °C 14.8 °C 1011.1 hPa North 0.8 km/h 3.7 km/h 81 % 0 mm
07:46 18.2 °C 14.8 °C 1011.1 hPa South 2.3 km/h 5.6 km/h 81 % 0 mm
07:51 18.3 °C 14.9 °C 1011.1 hPa South 0.2 km/h 1.9 km/h 81 % 0 mm
07:56 18.3 °C 15.2 °C 1010.7 hPa Calm     82 % 0 mm
08:01 18.3 °C 15.2 °C 1010.7 hPa Calm     82 % 0 mm
08:06 18.3 °C 15 °C 1011.1 hPa Calm     81 % 0 mm
08:11 18.3 °C 15 °C 1010.7 hPa Calm     81 % 0 mm
08:16 18.4 °C 14.9 °C 1010.7 hPa Calm     80 % 0 mm
08:21 18.4 °C 14.9 °C 1010.7 hPa Calm     80 % 0 mm
08:26 18.5 °C 14.8 °C 1010.7 hPa Calm     79 % 0 mm
08:31 18.7 °C 14.6 °C 1010.7 hPa Calm     77 % 0 mm
08:36 18.8 °C 14.7 °C 1011.1 hPa Calm     77 % 0 mm
08:41 19.1 °C 14.7 °C 1011.1 hPa South 3.5 km/h 5.6 km/h 76 % 0 mm
08:46 19.2 °C 14.7 °C 1011.1 hPa Calm   3.7 km/h 75 % 0 mm
08:51 19.3 °C 14.8 °C 1011.1 hPa Calm     75 % 0 mm
08:56 19.5 °C 14.7 °C 1011.1 hPa Calm   1.6 km/h 74 % 0 mm
09:01 19.8 °C 14.8 °C 1011.7 hPa South 6.4 km/h 13 km/h 73 % 0 mm
09:06 20.1 °C 14.7 °C 1011.4 hPa South 1.8 km/h 5.6 km/h 71 % 0 mm
09:11 20.3 °C 14.4 °C 1011.4 hPa South 6.1 km/h 7.4 km/h 69 % 0 mm
09:16 20.4 °C 14.8 °C 1011.7 hPa South 7.7 km/h 13 km/h 70 % 0 mm
09:21 20.5 °C 15.1 °C 1012.1 hPa South 11.3 km/h 16.7 km/h 71 % 0 mm
09:26 20.5 °C 15.3 °C 1011.7 hPa South 7.1 km/h 13 km/h 72 % 0 mm
09:31 20.6 °C 15.1 °C 1012.1 hPa South 7.1 km/h 9.3 km/h 71 % 0 mm
09:36 20.6 °C 15.1 °C 1012.1 hPa South 6.6 km/h 9.3 km/h 71 % 0 mm
09:41 20.6 °C 15.1 °C 1012.1 hPa South 8.9 km/h 11.1 km/h 71 % 0 mm
09:46 20.7 °C 15.3 °C 1012.1 hPa South 3.5 km/h 5.6 km/h 71 % 0 mm
09:51 20.9 °C 15.2 °C 1012.1 hPa South 1.9 km/h 5.6 km/h 70 % 0 mm
09:56 21.1 °C 15.2 °C 1012.1 hPa South 6.6 km/h 9.3 km/h 69 % 0 mm
10:01 21.2 °C 15.3 °C 1012.4 hPa South 6.9 km/h 9.3 km/h 69 % 0 mm
10:06 21.3 °C 15.3 °C 1012.1 hPa South 4.7 km/h 5.6 km/h 69 % 0 mm
10:11 21.4 °C 15.5 °C 1012.1 hPa South 3.4 km/h 5.6 km/h 69 % 0 mm
10:16 21.7 °C 15.6 °C 1012.4 hPa South 6.8 km/h 8 km/h 68 % 0 mm
10:21 21.9 °C 15.7 °C 1012.4 hPa North 5.1 km/h 9.3 km/h 68 % 0 mm
10:26 22 °C 15.6 °C 1012.4 hPa South 6.8 km/h 9.3 km/h 67 % 0 mm
10:31 22.1 °C 15.4 °C 1012.4 hPa South 7.1 km/h 11.1 km/h 66 % 0 mm
10:36 22.2 °C 15.3 °C 1012.4 hPa South 10.6 km/h 13 km/h 65 % 0 mm
10:41 22.3 °C 15.1 °C 1012.4 hPa South 1.8 km/h 3.7 km/h 64 % 0 mm
10:46 22.7 °C 15.7 °C 1012.4 hPa South 3.7 km/h 5.6 km/h 65 % 0 mm
10:51 23.2 °C 16 °C 1012.4 hPa South 0.5 km/h 3.7 km/h 64 % 0 mm
10:56 23.5 °C 15.6 °C 1012.4 hPa South 4.2 km/h 7.4 km/h 61 % 0 mm
11:01 23.9 °C 15.7 °C 1012.4 hPa South 1.1 km/h 7.4 km/h 60 % 0 mm
11:06 24.4 °C 15.6 °C 1012.4 hPa South 4 km/h 8 km/h 58 % 0 mm
11:11 24.9 °C 15.2 °C 1012.1 hPa South 3.2 km/h 7.4 km/h 55 % 0 mm
11:16 25.4 °C 15.2 °C 1012.4 hPa North 2.7 km/h 4.8 km/h 53 % 0 mm
11:21 26.1 °C 15.2 °C 1012.4 hPa South 3.5 km/h 9.7 km/h 51 % 0 mm
11:26 26.4 °C 14.8 °C 1012.4 hPa South 4.5 km/h 7.4 km/h 49 % 0 mm
11:31 26.8 °C 14.2 °C 1012.4 hPa SSE 10 km/h 18.5 km/h 46 % 0 mm
11:36 27.1 °C 13.8 °C 1012.4 hPa South 10.3 km/h 16.7 km/h 44 % 0 mm
11:41 27.2 °C 14.3 °C 1012.4 hPa SSW 14.8 km/h 20.4 km/h 45 % 0 mm
11:46 27.2 °C 13.9 °C 1012.4 hPa SSW 11.1 km/h 18.5 km/h 44 % 0 mm
11:51 27.2 °C 13.9 °C 1012.4 hPa SSW 13.2 km/h 16.7 km/h 44 % 0 mm
11:56 26.9 °C 14 °C 1012.4 hPa South 9 km/h 19.3 km/h 45 % 0 mm
12:01 27.1 °C 14.2 °C 1012.4 hPa SSE 9.7 km/h 13 km/h 45 % 0 mm
12:06 27.3 °C 14 °C 1012.4 hPa SSW 12.4 km/h 18.5 km/h 44 % 0 mm
12:11 27.5 °C 13.4 °C 1012.4 hPa SSW 13.8 km/h 18.5 km/h 42 % 0 mm
12:16 27.9 °C 13.8 °C 1012.4 hPa SSW 6.9 km/h 11.1 km/h 42 % 0 mm
12:21 28.2 °C 14.1 °C 1012.4 hPa South 3.9 km/h 14.8 km/h 42 % 0 mm
12:26 28.4 °C 14.3 °C 1012.4 hPa South 10.3 km/h 18.5 km/h 42 % 0 mm
12:31 28.5 °C 13.9 °C 1012.4 hPa South 10.8 km/h 14.5 km/h 41 % 0 mm
12:36 28.6 °C 13.6 °C 1012.4 hPa North 13 km/h 22.2 km/h 40 % 0 mm
12:41 28.7 °C 12.9 °C 1012.4 hPa SW 13.2 km/h 22.2 km/h 38 % 0 mm
12:46 28.9 °C 13.2 °C 1012.1 hPa South 14.5 km/h 18.5 km/h 38 % 0 mm
12:51 29.2 °C 13 °C 1012.1 hPa South 12.1 km/h 18.5 km/h 37 % 0 mm
12:56 29.3 °C 11.8 °C 1012.1 hPa SSW 9.8 km/h 20.4 km/h 34 % 0 mm
13:01 29.4 °C 11.9 °C 1012.1 hPa SSW 10 km/h 22.2 km/h 34 % 0 mm
13:06 29.8 °C 11.8 °C 1012.1 hPa North 12.1 km/h 17.7 km/h 33 % 0 mm
13:11 29.9 °C 11.4 °C 1012.1 hPa SSW 13.2 km/h 24.1 km/h 32 % 0 mm
13:16 30.4 °C 10.9 °C 1012.1 hPa South 12.9 km/h 18.5 km/h 30 % 0 mm
13:21 30.3 °C 10.8 °C 1012.1 hPa SSW 9.5 km/h 16.7 km/h 30 % 0 mm
13:26 30.4 °C 10.9 °C 1012.1 hPa South 11.6 km/h 25.9 km/h 30 % 0 mm
13:31 30.3 °C 10.8 °C 1012.1 hPa SSW 12.2 km/h 18.5 km/h 30 % 0 mm
13:36 30.6 °C 11 °C 1011.7 hPa South 17.4 km/h 24.1 km/h 30 % 0 mm
13:41 30.6 °C 11 °C 1011.7 hPa SSW 12.6 km/h 19.3 km/h 30 % 0 mm
13:46 30.6 °C 11.6 °C 1011.7 hPa SSE 11.7 km/h 16.7 km/h 31 % 0 mm
13:51 30.7 °C 11.7 °C 1012.1 hPa South 13.8 km/h 24.1 km/h 31 % 0 mm
13:56 30.7 °C 11.7 °C 1012.1 hPa North 13.7 km/h 20.4 km/h 31 % 0 mm
14:01 30.6 °C 12 °C 1012.1 hPa South 17.5 km/h 35.2 km/h 32 % 0 mm
14:06 30.7 °C 12.1 °C 1012.1 hPa South 13.8 km/h 24.1 km/h 32 % 0 mm
14:11 30.6 °C 12 °C 1012.1 hPa SSW 12.6 km/h 20.4 km/h 32 % 0 mm
14:16 30.5 °C 11.9 °C 1011.7 hPa SW 13.8 km/h 18.5 km/h 32 % 0 mm
14:21 30.7 °C 11.6 °C 1011.7 hPa South 12.4 km/h 16.7 km/h 31 % 0 mm
14:26 30.6 °C 11.6 °C 1011.7 hPa SSW 12.6 km/h 20.4 km/h 31 % 0 mm
14:31 30.7 °C 11.7 °C 1011.7 hPa South 12.4 km/h 20.4 km/h 31 % 0 mm
14:36 30.9 °C 11.8 °C 1011.7 hPa South 18.3 km/h 20.4 km/h 31 % 0 mm
14:41 30.8 °C 11.7 °C 1011.7 hPa SSW 15 km/h 18.5 km/h 31 % 0 mm
14:46 30.9 °C 11.8 °C 1011.7 hPa SSW 18 km/h 22.2 km/h 31 % 0 mm
14:51 31.2 °C 12.1 °C 1011.7 hPa SSE 15.9 km/h 25.9 km/h 31 % 0 mm
14:56 31.2 °C 12.1 °C 1011.7 hPa SSE 11.4 km/h 18.5 km/h 31 % 0 mm
14:57 31.2 °C 12.1 °C 1011.7 hPa South 10 km/h 14.8 km/h 31 % 0 mm
15:02 31.3 °C 12.2 °C 1011.7 hPa South 11.7 km/h 16.7 km/h 31 % 0 mm
15:07 31.2 °C 12.1 °C 1011.7 hPa South 15.6 km/h 22.2 km/h 31 % 0 mm
15:12 31.3 °C 11.6 °C 1011.7 hPa SSE 18.3 km/h 25.9 km/h 30 % 0 mm
15:17 31.2 °C 11.1 °C 1011.7 hPa South 16.1 km/h 22.2 km/h 29 % 0 mm
15:22 31.5 °C 10.8 °C 1011.7 hPa SSE 12.6 km/h 18.5 km/h 28 % 0 mm
15:27 31.2 °C 10.6 °C 1011.4 hPa South 5.5 km/h 14.8 km/h 28 % 0 mm
15:32 31 °C 10.3 °C 1011.7 hPa South 10.9 km/h 18.5 km/h 28 % 0 mm
15:37 31.1 °C 10.4 °C 1011.4 hPa SSW 15 km/h 22.2 km/h 28 % 0 mm
15:42 31.2 °C 10.5 °C 1011.4 hPa South 11.3 km/h 18.5 km/h 28 % 0 mm
15:47 31.1 °C 10.4 °C 1011.4 hPa South 12.7 km/h 16.7 km/h 28 % 0 mm
15:52 31.1 °C 10.4 °C 1011.4 hPa SSE 10.3 km/h 13 km/h 28 % 0 mm
15:57 31.2 °C 10.5 °C 1011.4 hPa South 15.8 km/h 22.2 km/h 28 % 0 mm
16:02 31.2 °C 10.5 °C 1011.1 hPa South 10.8 km/h 22.5 km/h 28 % 0 mm
16:07 30.9 °C 10.8 °C 1011.1 hPa South 12.6 km/h 24.1 km/h 29 % 0 mm
16:12 30.9 °C 11.3 °C 1011.1 hPa SSE 15.3 km/h 22.2 km/h 30 % 0 mm
16:17 31 °C 11.4 °C 1011.1 hPa South 13.4 km/h 22.2 km/h 30 % 0 mm
16:22 30.9 °C 11.8 °C 1011.1 hPa SSE 15 km/h 20.9 km/h 31 % 0 mm
16:27 30.7 °C 11.7 °C 1011.1 hPa SSE 11.3 km/h 20.4 km/h 31 % 0 mm
16:32 30.4 °C 11.9 °C 1011.1 hPa SSE 19.3 km/h 25.9 km/h 32 % 0 mm
16:37 29.9 °C 11.4 °C 1011.4 hPa South 16.1 km/h 18.5 km/h 32 % 0 mm
16:42 29.7 °C 11.3 °C 1011.4 hPa South 16.4 km/h 25.9 km/h 32 % 0 mm
16:47 29.6 °C 11.2 °C 1011.1 hPa SSE 19.2 km/h 24.1 km/h 32 % 0 mm
16:52 29.5 °C 11.6 °C 1011.1 hPa SSE 9.2 km/h 16.7 km/h 33 % 0 mm
16:57 29.6 °C 11.2 °C 1011.4 hPa South 13 km/h 20.9 km/h 32 % 0 mm
17:02 29.6 °C 11.2 °C 1011.1 hPa South 9.8 km/h 13 km/h 32 % 0 mm
17:07 29.7 °C 10.7 °C 1011.4 hPa SSE 10.6 km/h 18.5 km/h 31 % 0 mm
17:12 29.6 °C 10.6 °C 1011.4 hPa South 9 km/h 24.1 km/h 31 % 0 mm
17:17 29.6 °C 10.6 °C 1011.4 hPa South 19.5 km/h 29 km/h 31 % 0 mm
17:22 29.6 °C 10.6 °C 1011.4 hPa South 10.9 km/h 18.5 km/h 31 % 0 mm
17:27 29.7 °C 10.7 °C 1011.4 hPa South 11.7 km/h 20.9 km/h 31 % 0 mm
17:32 29.7 °C 10.7 °C 1011.4 hPa South 14.2 km/h 24.1 km/h 31 % 0 mm
17:37 29.7 °C 10.3 °C 1011.1 hPa South 9.3 km/h 14.8 km/h 30 % 0 mm
17:42 29.4 °C 10 °C 1011.1 hPa SSE 13.5 km/h 18.5 km/h 30 % 0 mm
17:47 29.3 °C 10.9 °C 1011.4 hPa SE 14.2 km/h 16.7 km/h 32 % 0 mm
17:52 29.3 °C 10.4 °C 1011.1 hPa South 10.6 km/h 14.8 km/h 31 % 0 mm
17:57 29.4 °C 10.5 °C 1011.1 hPa SSE 14 km/h 20.9 km/h 31 % 0 mm
18:02 29.3 °C 10.9 °C 1011.4 hPa South 10.6 km/h 18.5 km/h 32 % 0 mm
18:07 29.2 °C 10.8 °C 1011.4 hPa SSE 12.6 km/h 22.2 km/h 32 % 0 mm
18:12 29.4 °C 10.9 °C 1011.4 hPa South 15.4 km/h 27.8 km/h 32 % 0 mm
18:17 29.5 °C 11.1 °C 1011.4 hPa SE 16.3 km/h 24.1 km/h 32 % 0 mm
18:22 29.3 °C 10.9 °C 1011.4 hPa SE 13.8 km/h 24.1 km/h 32 % 0 mm
18:27 29.1 °C 11.2 °C 1011.4 hPa SSE 13 km/h 18.5 km/h 33 % 0 mm
18:32 29.3 °C 10.9 °C 1011.4 hPa SSE 13 km/h 18.5 km/h 32 % 0 mm
18:37 29.4 °C 10.9 °C 1011.4 hPa South 10.9 km/h 16.7 km/h 32 % 0 mm
18:42 29.3 °C 11.4 °C 1011.4 hPa SSE 7.7 km/h 18.5 km/h 33 % 0 mm
18:47 29.3 °C 11.3 °C 1011.4 hPa SSE 7.4 km/h 16.7 km/h 33 % 0 mm
18:52 29.3 °C 11.3 °C 1011.4 hPa SSE 7.4 km/h 16.7 km/h 33 % 0 mm
18:57 29.3 °C 11.8 °C 1011.4 hPa SSE 9.5 km/h 16.7 km/h 34 % 0 mm
19:02 29.3 °C 12.7 °C 1011.7 hPa SSE 11.1 km/h 18.5 km/h 36 % 0 mm
19:07 29.1 °C 12.9 °C 1011.7 hPa SSE 9 km/h 18.5 km/h 37 % 0 mm
19:12 28.6 °C 13.3 °C 1011.7 hPa SSE 12.7 km/h 22.2 km/h 39 % 0 mm
19:17 28.3 °C 13 °C 1011.7 hPa South 15.3 km/h 22.5 km/h 39 % 0 mm
19:22 28 °C 13.2 °C 1012.1 hPa South 10.9 km/h 22.2 km/h 40 % 0 mm
19:27 27.8 °C 13.3 °C 1012.4 hPa SSW 16.7 km/h 22.5 km/h 41 % 0 mm
19:32 27.4 °C 13.4 °C 1012.4 hPa SSE 17.4 km/h 33.3 km/h 42 % 0 mm
19:37 26.9 °C 13.3 °C 1012.8 hPa South 14.3 km/h 27.8 km/h 43 % 0 mm
19:42 26.6 °C 13.3 °C 1012.8 hPa South 15.3 km/h 29.6 km/h 44 % 0 mm
19:47 26.3 °C 13.4 °C 1012.8 hPa South 17.2 km/h 27.8 km/h 45 % 0 mm
19:52 26 °C 13.5 °C 1013.1 hPa South 13.8 km/h 27.4 km/h 46 % 0 mm
19:57 25.8 °C 13.3 °C 1013.1 hPa SE 17.7 km/h 27.8 km/h 46 % 0 mm
20:02 25.5 °C 13.1 °C 1013.1 hPa South 12.6 km/h 19.3 km/h 46 % 0 mm
20:07 25.1 °C 13 °C 1013.1 hPa South 18.7 km/h 27.8 km/h 47 % 0 mm
20:12 24.6 °C 12.9 °C 1013.1 hPa SSW 15.9 km/h 27.8 km/h 48 % 0 mm
20:17 24.2 °C 12.8 °C 1013.4 hPa SSW 10.6 km/h 16.7 km/h 49 % 0 mm
20:22 23.6 °C 12.9 °C 1013.8 hPa SSW 23.2 km/h 33.3 km/h 51 % 0 mm
20:27 23.2 °C 12.8 °C 1013.8 hPa SSE 16.9 km/h 25.9 km/h 52 % 0 mm
20:32 22.9 °C 13.1 °C 1013.8 hPa South 12.2 km/h 20.4 km/h 54 % 0 mm
20:37 22.7 °C 13.2 °C 1013.8 hPa South 16.4 km/h 31.5 km/h 55 % 0 mm
20:42 22.5 °C 13.6 °C 1013.8 hPa South 16.4 km/h 22.2 km/h 57 % 0 mm
20:47 22.3 °C 13.6 °C 1013.8 hPa South 10.9 km/h 14.8 km/h 58 % 0 mm
20:52 22.1 °C 13.7 °C 1013.8 hPa South 13.7 km/h 22.2 km/h 59 % 0 mm
20:57 21.9 °C 14 °C 1014.1 hPa North 9.7 km/h 18.5 km/h 61 % 0 mm
21:02 21.7 °C 13.9 °C 1014.1 hPa North 10.6 km/h 14.8 km/h 61 % 0 mm
21:07 21.6 °C 13.9 °C 1014.1 hPa SSW 10.1 km/h 16.7 km/h 62 % 0 mm
21:12 21.4 °C 13.8 °C 1014.1 hPa South 8.4 km/h 18.5 km/h 62 % 0 mm
21:17 21.3 °C 13.7 °C 1014.4 hPa South 14 km/h 20.4 km/h 62 % 0 mm
21:22 21.2 °C 13.7 °C 1014.4 hPa North 12.4 km/h 22.2 km/h 62 % 0 mm
21:27 21.2 °C 13.6 °C 1014.4 hPa South 7.6 km/h 13 km/h 62 % 0 mm
21:32 21.1 °C 13.7 °C 1014.4 hPa South 13.7 km/h 18.5 km/h 63 % 0 mm
21:37 21 °C 13.7 °C 1014.4 hPa South 9.8 km/h 13 km/h 63 % 0 mm
21:42 20.9 °C 13.6 °C 1014.4 hPa South 11.3 km/h 14.8 km/h 63 % 0 mm
21:47 20.9 °C 13.6 °C 1014.4 hPa South 7.2 km/h 13 km/h 63 % 0 mm
21:52 20.8 °C 13.5 °C 1014.4 hPa SSW 12.1 km/h 16.7 km/h 63 % 0 mm
21:57 20.8 °C 13.7 °C 1014.4 hPa South 10.5 km/h 14.8 km/h 64 % 0 mm
22:02 20.7 °C 13.7 °C 1014.4 hPa South 10 km/h 18.5 km/h 64 % 0 mm
22:07 20.6 °C 13.8 °C 1014.4 hPa South 12.1 km/h 20.4 km/h 65 % 0 mm
22:12 20.6 °C 13.7 °C 1014.4 hPa South 11.7 km/h 16.7 km/h 65 % 0 mm
22:49 20.1 °C 14.2 °C 1014.4 hPa South 13.7 km/h 16.1 km/h 69 % 0 mm
22:54 20.1 °C 14.2 °C 1014.4 hPa South 12.9 km/h 18.5 km/h 69 % 0 mm
22:59 20 °C 14.1 °C 1014.1 hPa South 6.1 km/h 18.5 km/h 69 % 0 mm
23:04 19.9 °C 14.1 °C 1014.1 hPa South 8.5 km/h 11.3 km/h 69 % 0 mm
23:09 19.9 °C 14.3 °C 1014.1 hPa North 6.6 km/h 16.7 km/h 70 % 0 mm
23:14 19.8 °C 14.2 °C 1014.1 hPa South 9.7 km/h 13 km/h 70 % 0 mm
23:19 19.8 °C 14.2 °C 1013.8 hPa South 5.8 km/h 9.7 km/h 70 % 0 mm
23:24 19.8 °C 14.4 °C 1013.8 hPa South 5.5 km/h 9.7 km/h 71 % 0 mm
23:29 19.7 °C 14.3 °C 1013.8 hPa South 6.9 km/h 11.1 km/h 71 % 0 mm
23:34 19.7 °C 14.3 °C 1013.8 hPa South 5.1 km/h 13 km/h 71 % 0 mm
23:39 19.7 °C 14.3 °C 1013.8 hPa South 8.2 km/h 11.1 km/h 71 % 0 mm
23:44 19.7 °C 14.3 °C 1013.4 hPa South 4.5 km/h 9.3 km/h 71 % 0 mm
23:49 19.6 °C 14.2 °C 1013.4 hPa South 9.3 km/h 13 km/h 71 % 0 mm
23:54 19.6 °C 14.2 °C 1013.4 hPa South 8.2 km/h 12.9 km/h 71 % 0 mm
23:59 19.7 °C 14.3 °C 1013.4 hPa South 2.4 km/h 9.3 km/h 71 % 0 mm
Ararat Weather
Compliments of Weather Underground - 2 mb
Click here to send mail.


ABOUT

Live weather data from Ararat, Victoria, Australia, 3377
Data uploaded from Cumulus every 5 minutes to Weather Underground.
This site then downloads the raw data for formatting and display.
Metric and imperial data can be displayed. Graphs and historical data available.
Includes Sun and Moon times and rain image live from BOM.

Check out Ararat Weather on Facebook, Twitter and Google +

Help support ongoing costs by checking out the ads





Follow @AraratWeather